Stations météo

réclame
Mon MeteoGroup
Catania/Sigonella, Italie (16459): Température de l'air & dewpoint: 14.08.2018 01:00:00 - 20.08.2018 01:00:00 (CEST)Catania/Sigonella, Italie (16459): Vitesse du vent: 14.08.2018 01:00:00 - 20.08.2018 01:00:00 (CEST)Catania/Sigonella, Italie (16459): Direction du vent: 14.08.2018 01:00:00 - 20.08.2018 01:00:00 (CEST)Catania/Sigonella, Italie (16459): reduced air pressure: 14.08.2018 01:00:00 - 20.08.2018 01:00:00 (CEST)Catania/Sigonella, Italie (16459): visibility: 14.08.2018 01:00:00 - 20.08.2018 01:00:00 (CEST)
Date & Time tt [°C] td [°C] ff [km/h] ff [knt] dd ppp [hPa] vv [km]
20.08.2018 01:00:00 25,0 25,0 13 7 WNW - 10
20.08.2018 00:00:00 25,0 25,0 21 11 W - 10
19.08.2018 23:00:00 25,2 25,2 13 7 NW 1013,5 15
19.08.2018 22:00:00 27,0 27,0 4 2 N - 10
19.08.2018 21:00:00 27,0 27,0 9 5 ENE - 10
19.08.2018 20:00:00 27,6 25,6 15 8 E 1013,2 10
19.08.2018 19:00:00 30,0 23,0 21 11 NE - 10
19.08.2018 18:00:00 32,0 22,0 18 10 E - 10
19.08.2018 17:00:00 31,6 22,3 22 12 E 1013,6 10
19.08.2018 16:00:00 31,0 23,0 26 14 E - 10
19.08.2018 15:00:00 32,0 23,0 26 14 E - 10
19.08.2018 14:00:00 34,6 20,2 9 5 SW 1014,3 10
19.08.2018 13:00:00 33,0 19,0 5 3 W - 10
19.08.2018 12:00:00 32,0 21,0 5 3 W - 10
19.08.2018 11:00:00 30,6 24,0 8 4 WSW 1015,8 10
19.08.2018 10:00:00 28,0 24,0 5 3 W - 10
19.08.2018 09:00:00 25,0 25,0 8 4 WNW - 10
19.08.2018 08:00:00 22,2 22,2 11 6 WSW 1015,7 10
19.08.2018 07:00:00 20,0 20,0 9 5 WSW - 10
19.08.2018 06:00:00 20,0 20,0 8 4 W - 10
19.08.2018 05:00:00 20,6 20,6 11 6 WNW 1016,0 10
19.08.2018 04:00:00 21,0 21,0 11 6 W - 10
19.08.2018 03:00:00 21,0 21,0 11 6 W - 10
19.08.2018 02:00:00 21,6 21,6 9 5 W 1016,9 10
19.08.2018 01:00:00 22,0 22,0 8 4 W - 10
19.08.2018 00:00:00 21,0 21,0 9 5 W - 10
18.08.2018 23:00:00 21,8 21,8 13 7 WSW 1016,8 10
18.08.2018 22:00:00 22,0 22,0 9 5 SSW - 10
18.08.2018 21:00:00 24,0 24,0 9 5 W - 10
18.08.2018 20:00:00 24,0 24,0 9 5 WSW 1015,6 16
18.08.2018 19:00:00 24,0 24,0 13 7 WNW - 10
18.08.2018 18:00:00 25,0 25,0 21 11 W - 10
18.08.2018 17:00:00 26,8 21,8 11 6 WSW 1015,5 16
18.08.2018 16:00:00 30,0 24,0 22 12 ESE - 10
18.08.2018 15:00:00 32,0 25,0 24 13 ENE - 10
18.08.2018 14:00:00 32,0 24,3 18 10 E 1014,7 18
18.08.2018 13:00:00 33,0 24,0 18 10 E - 10
18.08.2018 12:00:00 32,0 24,0 9 5 E - 10
18.08.2018 11:00:00 32,2 24,5 8 4 ESE 1015,8 16
18.08.2018 10:00:00 29,0 26,0 4 2 WSW - 10
18.08.2018 09:00:00 26,0 26,0 8 4 W - 10
18.08.2018 08:00:00 22,4 22,4 5 3 W 1015,4 15
18.08.2018 07:00:00 22,0 22,0 8 4 W - 10
18.08.2018 06:00:00 23,0 23,0 8 4 WNW - 10
18.08.2018 05:00:00 23,0 23,0 9 5 W 1014,7 10
18.08.2018 04:00:00 23,0 23,0 11 6 W - 10
18.08.2018 03:00:00 24,0 24,0 9 5 SW - 10
18.08.2018 02:00:00 24,0 24,0 9 5 NW 1015,0 10
18.08.2018 01:00:00 24,0 24,0 11 6 WSW - 10
18.08.2018 00:00:00 25,0 25,0 9 5 NW - 10
17.08.2018 23:00:00 26,0 26,0 4 2 N 1015,5 10
17.08.2018 22:00:00 26,0 26,0 11 6 ENE - 10
17.08.2018 21:00:00 26,0 26,0 13 7 ENE - 10
17.08.2018 20:00:00 26,8 26,8 18 10 ENE 1014,3 10
17.08.2018 19:00:00 27,0 27,0 22 12 ENE - 10
17.08.2018 18:00:00 29,0 24,0 29 16 ENE - 10
17.08.2018 17:00:00 29,8 24,2 35 19 E 1013,4 10
17.08.2018 16:00:00 32,0 25,0 34 18 E - 10
17.08.2018 15:00:00 33,0 25,0 22 12 E - 10
17.08.2018 14:00:00 32,8 27,1 21 11 E 1014,1 10
17.08.2018 13:00:00 34,0 24,0 8 4 NW - 10
17.08.2018 12:00:00 33,0 27,0 5 3 WSW - 10
17.08.2018 11:00:00 31,8 26,8 4 2 NNW 1015,1 10
17.08.2018 10:00:00 28,0 26,0 13 7 W - 10
17.08.2018 09:00:00 26,0 25,0 9 5 WNW - 10
17.08.2018 08:00:00 22,8 22,8 8 4 W 1014,8 12
17.08.2018 07:00:00 22,0 22,0 11 6 W - 10
17.08.2018 06:00:00 21,0 21,0 8 4 W - 10
17.08.2018 05:00:00 22,6 22,6 11 6 WNW 1014,2 15
17.08.2018 04:00:00 23,0 23,0 8 4 WSW - 10
17.08.2018 03:00:00 23,0 23,0 5 3 SW - 10
17.08.2018 02:00:00 24,0 24,0 4 2 NW 1014,2 15
17.08.2018 01:00:00 25,0 25,0 4 2 WNW - 10
17.08.2018 00:00:00 25,0 25,0 4 2 ENE - 10
16.08.2018 23:00:00 25,2 25,2 4 2 NNE 1013,7 15
16.08.2018 22:00:00 25,0 25,0 11 6 ESE - 10
16.08.2018 21:00:00 26,0 26,0 15 8 E - 10
16.08.2018 20:00:00 27,0 23,9 22 12 E 1012,4 15
16.08.2018 19:00:00 27,0 24,0 26 14 E - 10
16.08.2018 18:00:00 29,0 23,0 29 16 E - 10
16.08.2018 17:00:00 32,0 21,8 28 15 E 1012,0 15
16.08.2018 16:00:00 32,0 21,0 21 11 E - 10
16.08.2018 15:00:00 32,0 20,0 16 9 E - 10
16.08.2018 14:00:00 32,0 21,2 18 10 E 1012,7 15
16.08.2018 13:00:00 31,0 21,0 11 6 E - 10
16.08.2018 12:00:00 30,0 22,0 5 3 SE - 10
16.08.2018 11:00:00 28,0 22,7 4 2 SSW 1013,2 15
16.08.2018 10:00:00 26,0 24,0 8 4 W - 10
16.08.2018 09:00:00 23,0 23,0 9 5 W - 10
16.08.2018 08:00:00 20,0 20,0 8 4 WNW 1012,5 10
16.08.2018 07:00:00 19,0 19,0 4 2 WSW - 10
16.08.2018 06:00:00 19,0 19,0 2 1 S - 10
16.08.2018 05:00:00 19,6 19,6 4 2 NNE 1011,8 10
16.08.2018 04:00:00 20,0 20,0 8 4 S - 10
16.08.2018 03:00:00 20,0 20,0 8 4 W - 10
16.08.2018 02:00:00 20,0 20,0 4 2 WNW 1012,5 10
16.08.2018 01:00:00 21,0 21,0 16 9 WNW - 10
16.08.2018 00:00:00 21,0 21,0 15 8 W - 10
15.08.2018 23:00:00 21,2 21,2 13 7 WSW 1013,0 10
15.08.2018 22:00:00 21,0 21,0 11 6 WSW - 10
15.08.2018 21:00:00 22,0 22,0 15 8 NW - 10
15.08.2018 20:00:00 22,2 22,2 9 5 W 1012,4 10
15.08.2018 19:00:00 22,0 22,0 8 4 N - 10
15.08.2018 18:00:00 22,0 22,0 5 3 SE - 10
15.08.2018 17:00:00 23,0 23,0 11 6 NE 1012,4 8
15.08.2018 16:00:00 26,0 20,0 22 12 N - 10
15.08.2018 15:00:00 30,0 24,0 44 24 ENE - 10
15.08.2018 14:00:00 32,4 25,2 29 16 ESE 1011,3 12
15.08.2018 13:00:00 34,0 19,0 22 12 E - 10
15.08.2018 12:00:00 33,0 21,0 8 4 SSE - 10
15.08.2018 11:00:00 31,0 22,9 8 4 SSE 1012,2 12
15.08.2018 10:00:00 29,0 27,0 11 6 ESE - 10
15.08.2018 09:00:00 28,0 25,0 5 3 NW - 10
15.08.2018 08:00:00 24,8 24,8 16 9 WNW 1011,8 10
15.08.2018 07:00:00 23,0 23,0 13 7 WSW - 10
15.08.2018 06:00:00 22,0 22,0 9 5 W - 10
15.08.2018 05:00:00 21,8 21,8 8 4 WSW 1011,6 13
15.08.2018 04:00:00 22,0 22,0 8 4 WNW - 10
15.08.2018 03:00:00 22,0 22,0 11 6 WSW - 10
15.08.2018 02:00:00 22,4 22,4 9 5 W 1011,8 13
15.08.2018 01:00:00 23,0 23,0 8 4 W - 10
15.08.2018 00:00:00 22,0 22,0 8 4 WNW - 10
14.08.2018 23:00:00 21,6 21,6 4 2 SSW 1013,0 13
14.08.2018 22:00:00 23,0 23,0 9 5 SSW - 10
14.08.2018 21:00:00 23,0 23,0 9 5 W - 10
14.08.2018 20:00:00 23,0 23,0 11 6 NW 1013,1 8
14.08.2018 19:00:00 22,0 22,0 11 6 SW - 7
14.08.2018 18:00:00 23,0 23,0 28 15 W - 6
14.08.2018 17:00:00 31,0 23,7 24 13 ESE 1011,4 10
14.08.2018 16:00:00 32,0 19,0 29 16 ENE - 10
14.08.2018 15:00:00 35,0 18,0 29 16 ENE - 10
14.08.2018 14:00:00 37,4 15,8 8 4 S 1011,4 10
14.08.2018 13:00:00 37,0 17,0 5 3 SSW - 10
14.08.2018 12:00:00 35,0 17,0 8 4 W - 10
14.08.2018 11:00:00 33,0 17,2 5 3 SSW 1013,8 10
14.08.2018 10:00:00 30,0 22,0 8 4 W - 10
14.08.2018 09:00:00 28,0 23,0 9 5 NW - 10
14.08.2018 08:00:00 24,8 24,8 8 4 W 1014,2 10
14.08.2018 07:00:00 24,0 24,0 5 3 WNW - 10
14.08.2018 06:00:00 24,0 24,0 8 4 W - 10
14.08.2018 05:00:00 24,8 24,0 9 5 SW 1013,5 10
14.08.2018 04:00:00 - - - - - - -
14.08.2018 03:00:00 26,0 20,0 8 4 SW - 10
14.08.2018 02:00:00 25,8 23,1 11 6 NW 1013,5 10
14.08.2018 01:00:00 28,0 21,0 9 5 NW - 10

tt = Température de l'air
td = dewpoint
ff = Vitesse du vent
dd = Direction du vent
ppp = reduced air pressure
vv = visibility

stations d'obs. à proximité